�������l�o���
Date,Time,MP-1(��Sv/h),MP-2(��Sv/h),MP-3(��Sv/h),MP-4(��Sv/h),MP-5(��Sv/h),MP-6(��Sv/h),MP-7(��Sv/h),MP-8(��Sv/h),����,����(m/s),���J
2023/10/23,00:00,0.528,0.805,0.493,1.011,0.726,0.320,0.574,0.532,��,9.9,��
2023/10/23,00:10,0.528,0.804,0.495,1.008,0.726,0.321,0.572,0.533,���쐼,8.6,��
2023/10/23,00:20,0.527,0.804,0.492,1.010,0.723,0.321,0.573,0.531,���쐼,8.2,��
2023/10/23,00:30,0.528,0.804,0.492,1.008,0.725,0.322,0.573,0.532,���쐼,7.2,��
2023/10/23,00:40,0.527,0.803,0.493,1.007,0.724,0.321,0.572,0.532,���쐼,8.5,��
2023/10/23,00:50,0.528,0.803,0.494,1.007,0.725,0.320,0.573,0.532,���쐼,8.0,��
2023/10/23,01:00,0.527,0.806,0.494,1.009,0.726,0.320,0.574,0.535,���쐼,8.7,��
2023/10/23,01:10,0.528,0.804,0.493,1.008,0.726,0.321,0.573,0.533,���쐼,7.0,��
2023/10/23,01:20,0.528,0.803,0.493,1.010,0.725,0.320,0.571,0.533,���쐼,3.5,��
2023/10/23,01:30,0.529,0.803,0.494,1.010,0.726,0.322,0.574,0.533,��,7.3,��
2023/10/23,01:40,0.528,0.803,0.492,1.010,0.725,0.321,0.574,0.532,���쐼,7.2,��
2023/10/23,01:50,0.529,0.806,0.494,1.009,0.727,0.320,0.575,0.532,��,4.8,��
2023/10/23,02:00,0.528,0.803,0.494,1.006,0.727,0.320,0.574,0.533,��,6.6,��
2023/10/23,02:10,0.530,0.803,0.493,1.009,0.724,0.320,0.573,0.532,���쐼,6.6,��
2023/10/23,02:20,0.527,0.803,0.494,1.009,0.726,0.321,0.573,0.533,���쐼,4.1,��
2023/10/23,02:30,0.529,0.803,0.493,1.009,0.726,0.320,0.573,0.534,���쐼,4.3,��
2023/10/23,02:40,0.528,0.804,0.494,1.007,0.726,0.320,0.573,0.532,��,5.2,��
2023/10/23,02:50,0.528,0.805,0.493,1.007,0.727,0.320,0.573,0.532,�쐼,5.3,��
2023/10/23,03:00,0.530,0.806,0.493,1.008,0.726,0.321,0.574,0.532,���쐼,3.9,��
2023/10/23,03:10,0.528,0.805,0.493,1.008,0.727,0.321,0.573,0.532,���쐼,3.8,��
2023/10/23,03:20,0.530,0.802,0.494,1.008,0.726,0.322,0.574,0.533,��,3.6,��
2023/10/23,03:30,0.530,0.803,0.493,1.007,0.726,0.322,0.573,0.532,-,CALM,��
2023/10/23,03:40,0.530,0.804,0.494,1.008,0.725,0.321,0.573,0.533,��,2.8,��
2023/10/23,03:50,0.529,0.804,0.494,1.009,0.725,0.322,0.573,0.533,��,2.5,��
2023/10/23,04:00,0.527,0.802,0.492,1.010,0.728,0.321,0.573,0.531,��,1.2,��
2023/10/23,04:10,0.529,0.805,0.495,1.008,0.724,0.319,0.572,0.533,��쐼,1.2,��
2023/10/23,04:20,0.529,0.802,0.493,1.008,0.728,0.321,0.572,0.533,��쓌,0.6,��
2023/10/23,04:30,0.528,0.803,0.493,1.008,0.726,0.321,0.572,0.532,��쐼,2.8,��
2023/10/23,04:40,0.528,0.804,0.493,1.008,0.724,0.320,0.572,0.532,��쐼,2.3,��
2023/10/23,04:50,0.528,0.803,0.494,1.008,0.726,0.321,0.573,0.533,��쐼,4.0,��
2023/10/23,05:00,0.529,0.803,0.494,1.011,0.724,0.319,0.573,0.532,��쐼,4.8,��
2023/10/23,05:10,0.529,0.803,0.494,1.010,0.727,0.321,0.572,0.534,��쐼,4.7,��
2023/10/23,05:20,0.529,0.805,0.493,1.006,0.726,0.320,0.573,0.533,��쐼,3.4,��
2023/10/23,05:30,0.528,0.804,0.494,1.009,0.727,0.320,0.571,0.533,��,3.7,��
2023/10/23,05:40,0.528,0.802,0.493,1.007,0.725,0.322,0.572,0.532,��,3.6,��
2023/10/23,05:50,0.528,0.803,0.494,1.009,0.725,0.319,0.572,0.531,��쐼,3.0,��
2023/10/23,06:00,0.527,0.802,0.495,1.007,0.726,0.320,0.573,0.532,��쐼,2.5,��
2023/10/23,06:10,0.528,0.805,0.492,1.009,0.725,0.320,0.572,0.533,�쐼,3.6,��
2023/10/23,06:20,0.529,0.802,0.492,1.009,0.725,0.319,0.573,0.533,��,4.6,��
2023/10/23,06:30,0.528,0.802,0.493,1.009,0.725,0.320,0.573,0.532,���쐼,4.2,��
2023/10/23,06:40,0.528,0.804,0.494,1.008,0.724,0.320,0.571,0.532,��,5.0,��
2023/10/23,06:50,0.528,0.804,0.493,1.009,0.726,0.320,0.572,0.531,���쐼,4.2,��
2023/10/23,07:00,0.529,0.804,0.492,1.009,0.726,0.321,0.571,0.533,���k��,3.9,��
2023/10/23,07:10,0.527,0.804,0.493,1.010,0.727,0.320,0.572,0.531,���k��,4.8,��
2023/10/23,07:20,0.527,0.803,0.492,1.009,0.725,0.320,0.570,0.532,��,5.0,��
2023/10/23,07:30,0.529,0.805,0.494,1.010,0.726,0.321,0.573,0.532,��,4.0,��
2023/10/23,07:40,0.527,0.804,0.494,1.011,0.727,0.320,0.571,0.532,�k��,2.2,��
2023/10/23,07:50,0.528,0.804,0.494,1.008,0.725,0.321,0.572,0.531,�k��,2.0,��
2023/10/23,08:00,0.528,0.802,0.494,1.007,0.726,0.322,0.573,0.532,�k��,4.5,��
2023/10/23,08:10,0.529,0.803,0.493,1.010,0.726,0.321,0.572,0.532,���k��,5.6,��
2023/10/23,08:20,0.531,0.803,0.492,1.010,0.725,0.321,0.572,0.532,�k��,6.2,��
2023/10/23,08:30,0.529,0.803,0.493,1.009,0.725,0.320,0.571,0.532,�k��,3.7,��
2023/10/23,08:40,0.527,0.803,0.489,1.008,0.725,0.321,0.572,0.532,���k��,3.1,��
2023/10/23,08:50,0.527,0.801,0.489,1.008,0.725,0.321,0.570,0.533,���k��,3.6,��
2023/10/23,09:00,0.528,0.800,0.488,1.010,0.723,0.320,0.572,0.532,��,4.7,��
2023/10/23,09:10,0.526,0.801,0.488,1.009,0.719,0.321,0.571,0.533,��,5.9,��
2023/10/23,09:20,0.527,0.800,0.490,1.010,0.715,0.321,0.572,0.532,��,3.7,��
2023/10/23,09:30,0.526,0.799,0.489,1.010,0.714,0.320,0.572,0.534,���k��,3.1,��
2023/10/23,09:40,0.527,0.800,0.489,1.011,0.715,0.320,0.572,0.533,�k�k��,1.9,��
2023/10/23,09:50,0.528,0.803,0.490,1.011,0.712,0.320,0.572,0.532,�k�k��,2.6,��
2023/10/23,10:00,0.528,0.802,0.488,1.011,0.715,0.317,0.574,0.532,�k,2.6,��
2023/10/23,10:10,0.527,0.800,0.487,1.010,0.715,0.319,0.572,0.531,�k�k��,2.0,��
2023/10/23,10:20,0.527,0.802,0.488,1.008,0.714,0.319,0.571,0.531,�k��,1.7,��
2023/10/23,10:30,0.527,0.803,0.485,1.010,0.717,0.320,0.572,0.532,���k��,2.6,��
2023/10/23,10:40,0.529,0.803,0.481,1.011,0.713,0.319,0.571,0.531,���k��,2.6,��
2023/10/23,10:50,0.529,0.805,0.487,1.011,0.715,0.320,0.571,0.532,���k��,3.1,��
2023/10/23,11:00,0.527,0.803,0.483,1.010,0.716,0.318,0.571,0.530,���k��,3.8,��
2023/10/23,11:10,0.529,0.802,0.483,1.009,0.721,0.320,0.572,0.531,���k��,3.3,��
2023/10/23,11:20,0.529,0.803,0.488,1.012,0.722,0.320,0.572,0.532,���k��,2.6,��
2023/10/23,11:30,0.529,0.801,0.487,1.012,0.720,0.320,0.573,0.532,���k��,2.2,��
2023/10/23,11:40,0.528,0.803,0.487,1.010,0.721,0.319,0.573,0.532,���쓌,3.3,��
2023/10/23,11:50,0.529,0.803,0.487,1.010,0.728,0.320,0.573,0.532,���쓌,2.9,��
2023/10/23,12:00,0.529,0.804,0.488,1.013,0.727,0.318,0.573,0.532,���k��,2.3,��
2023/10/23,12:10,0.529,0.804,0.488,1.012,0.728,0.320,0.573,0.531,��,3.0,��
2023/10/23,12:20,0.528,0.804,0.483,1.013,0.727,0.320,0.572,0.532,���쓌,2.6,��
2023/10/23,12:30,0.530,0.803,0.477,1.013,0.727,0.320,0.572,0.531,��,2.3,��
2023/10/23,12:40,0.529,0.805,0.480,1.013,0.725,0.322,0.573,0.531,��,2.0,��
2023/10/23,12:50,0.529,0.805,0.479,1.011,0.727,0.321,0.573,0.531,���쓌,2.0,��
2023/10/23,13:00,0.531,0.803,0.486,1.012,0.724,0.320,0.572,0.532,��,2.6,��
2023/10/23,13:10,0.528,0.803,0.490,1.010,0.719,0.319,0.571,0.531,��,2.9,��
2023/10/23,13:20,0.529,0.803,0.484,1.011,0.720,0.320,0.573,0.532,���쓌,2.3,��
2023/10/23,13:30,0.528,0.802,0.492,1.013,0.716,0.320,0.571,0.532,���쓌,2.3,��
2023/10/23,13:40,0.529,0.802,0.493,1.012,0.720,0.321,0.571,0.532,���쓌,2.3,��
2023/10/23,13:50,0.528,0.801,0.493,1.013,0.724,0.321,0.571,0.531,���쓌,2.6,��
2023/10/23,14:00,0.527,0.801,0.493,1.011,0.718,0.321,0.570,0.531,�쓌,2.3,��
2023/10/23,14:10,0.527,0.802,0.494,1.013,0.720,0.320,0.573,0.530,�쓌,2.0,��
2023/10/23,14:20,0.528,0.801,0.494,1.011,0.723,0.320,0.572,0.532,�쓌,1.9,��
2023/10/23,14:30,0.528,0.804,0.497,1.012,0.724,0.321,0.570,0.532,�쓌,1.7,��
2023/10/23,14:40,0.527,0.801,0.494,1.012,0.726,0.320,0.570,0.531,��,1.7,��
2023/10/23,14:50,0.528,0.802,0.495,1.012,0.727,0.318,0.572,0.530,���쓌,1.9,��
2023/10/23,15:00,0.529,0.802,0.497,1.010,0.726,0.321,0.570,0.531,�쓌,1.9,��
2023/10/23,15:10,0.529,0.804,0.496,1.012,0.727,0.321,0.570,0.531,�쓌,1.5,��
2023/10/23,15:20,0.528,0.803,0.496,1.012,0.727,0.321,0.571,0.533,��쓌,1.7,��
2023/10/23,15:30,0.530,0.805,0.495,1.010,0.728,0.321,0.572,0.531,�쓌,1.7,��
2023/10/23,15:40,0.528,0.804,0.495,1.011,0.726,0.320,0.572,0.532,��,1.2,��
2023/10/23,15:50,0.530,0.806,0.495,1.011,0.727,0.320,0.570,0.530,���k��,0.9,��
2023/10/23,16:00,0.529,0.804,0.495,1.012,0.727,0.321,0.571,0.532,���k��,1.2,��
2023/10/23,16:10,0.530,0.804,0.493,1.011,0.727,0.320,0.571,0.531,���쓌,1.7,��
2023/10/23,16:20,0.530,0.803,0.495,1.011,0.725,0.321,0.572,0.531,�쓌,1.1,��
2023/10/23,16:30,0.528,0.805,0.494,1.010,0.728,0.320,0.572,0.533,�쓌,1.5,��
2023/10/23,16:40,0.530,0.807,0.493,1.011,0.728,0.321,0.570,0.532,���쓌,0.9,��
2023/10/23,16:50,0.529,0.807,0.493,1.009,0.730,0.321,0.570,0.533,��쓌,0.9,��
2023/10/23,17:00,0.528,0.807,0.493,1.009,0.729,0.321,0.571,0.532,���쓌,0.8,��
2023/10/23,17:10,0.529,0.804,0.494,1.012,0.730,0.320,0.573,0.534,��쓌,0.9,��
2023/10/23,17:20,0.529,0.807,0.495,1.012,0.728,0.321,0.572,0.533,-,CALM,��
2023/10/23,17:30,0.529,0.807,0.494,1.010,0.729,0.319,0.572,0.533,-,CALM,��
2023/10/23,17:40,0.531,0.807,0.495,1.011,0.728,0.321,0.572,0.533,�쐼,0.8,��
2023/10/23,17:50,0.529,0.806,0.496,1.011,0.731,0.321,0.573,0.532,���쐼,0.9,��
2023/10/23,18:00,0.530,0.806,0.495,1.012,0.730,0.321,0.572,0.533,���쐼,0.9,��
2023/10/23,18:10,0.530,0.807,0.496,1.012,0.730,0.321,0.573,0.534,�쐼,1.5,��
2023/10/23,18:20,0.531,0.807,0.494,1.010,0.729,0.320,0.572,0.533,���쐼,0.9,��
2023/10/23,18:30,0.528,0.806,0.494,1.012,0.728,0.321,0.572,0.533,�쐼,0.9,��
2023/10/23,18:40,0.529,0.808,0.496,1.009,0.731,0.321,0.571,0.532,���쐼,0.8,��
2023/10/23,18:50,0.530,0.805,0.495,1.009,0.728,0.320,0.572,0.533,-,CALM,��
2023/10/23,19:00,0.529,0.805,0.495,1.010,0.729,0.321,0.573,0.532,-,CALM,��
2023/10/23,19:10,0.531,0.806,0.494,1.010,0.730,0.322,0.572,0.531,-,CALM,��
2023/10/23,19:20,0.530,0.806,0.495,1.012,0.730,0.321,0.572,0.533,��,0.6,��
2023/10/23,19:30,0.530,0.807,0.495,1.010,0.729,0.321,0.574,0.533,-,CALM,��
2023/10/23,19:40,0.530,0.805,0.496,1.011,0.730,0.321,0.572,0.534,-,CALM,��
2023/10/23,19:50,0.529,0.807,0.496,1.010,0.729,0.321,0.571,0.533,�쐼,0.9,��
2023/10/23,20:00,0.528,0.806,0.496,1.013,0.728,0.322,0.572,0.533,��쐼,0.6,��
2023/10/23,20:10,0.529,0.804,0.495,1.010,0.729,0.322,0.572,0.533,���쐼,0.6,��
2023/10/23,20:20,0.530,0.806,0.494,1.010,0.729,0.321,0.574,0.531,�쐼,0.9,��
2023/10/23,20:30,0.529,0.805,0.495,1.009,0.728,0.321,0.573,0.532,�쐼,1.1,��
2023/10/23,20:40,0.529,0.806,0.493,1.010,0.730,0.322,0.571,0.532,��,0.9,��
2023/10/23,20:50,0.529,0.806,0.496,1.010,0.731,0.320,0.572,0.532,��,1.2,��
2023/10/23,21:00,0.530,0.805,0.497,1.014,0.729,0.322,0.572,0.531,���k��,1.2,��
2023/10/23,21:10,0.527,0.806,0.495,1.011,0.729,0.322,0.571,0.531,���k��,1.2,��
2023/10/23,21:20,0.527,0.807,0.496,1.009,0.729,0.319,0.570,0.531,���k��,1.4,��
2023/10/23,21:30,0.529,0.804,0.494,1.012,0.728,0.321,0.571,0.533,���k��,1.5,��
2023/10/23,21:40,0.529,0.806,0.494,1.012,0.728,0.321,0.572,0.532,���k��,2.0,��
2023/10/23,21:50,0.529,0.804,0.495,1.012,0.729,0.321,0.572,0.533,���k��,2.2,��
2023/10/23,22:00,0.529,0.805,0.496,1.010,0.729,0.321,0.571,0.533,���k��,2.3,��
2023/10/23,22:10,0.529,0.804,0.495,1.010,0.729,0.321,0.571,0.532,�k��,2.3,��
2023/10/23,22:20,0.529,0.801,0.493,1.011,0.731,0.321,0.572,0.532,�k��,3.5,��
2023/10/23,22:30,0.530,0.806,0.494,1.013,0.730,0.321,0.572,0.531,�k�k��,4.5,��
2023/10/23,22:40,0.531,0.805,0.495,1.012,0.729,0.320,0.573,0.532,�k�k��,6.8,��
2023/10/23,22:50,0.531,0.806,0.495,1.013,0.728,0.322,0.571,0.534,�k�k��,7.6,��
2023/10/23,23:00,0.530,0.805,0.495,1.012,0.728,0.321,0.572,0.532,�k�k��,7.5,��
2023/10/23,23:10,0.529,0.807,0.495,1.011,0.729,0.320,0.573,0.533,�k�k��,8.0,��
2023/10/23,23:20,0.530,0.807,0.494,1.012,0.729,0.322,0.572,0.534,�k�k��,7.1,��
2023/10/23,23:30,0.530,0.804,0.494,1.013,0.731,0.320,0.573,0.532,�k�k��,7.2,��
2023/10/23,23:40,0.531,0.806,0.495,1.012,0.729,0.321,0.571,0.534,�k��,6.9,��
2023/10/23,23:50,0.531,0.803,0.495,1.011,0.728,0.322,0.570,0.534,�k�k��,6.0,��
